2023/06/29 00:00:00, 0.0,24.8
2023/06/29 00:10:00, 0.0,24.8
2023/06/29 00:20:00, 0.0,24.4
2023/06/29 00:30:00, 0.0,24.5
2023/06/29 00:40:00, 0.0,24.5
2023/06/29 00:50:00, 0.0,24.5
2023/06/29 01:00:00, 0.0,24.6
2023/06/29 01:10:00, 0.0,24.4
2023/06/29 01:20:00, 0.0,24.3
2023/06/29 01:30:00, 0.0,24.3
2023/06/29 01:40:00, 0.0,24.4
2023/06/29 01:50:00, 0.0,24.4
2023/06/29 02:00:00, 0.0,24.2
2023/06/29 02:10:00, 0.0,24.0
2023/06/29 02:20:00, 0.0,24.1
2023/06/29 02:30:00, 0.0,23.9
2023/06/29 02:40:00, 0.0,24.0
2023/06/29 02:50:00, 0.0,24.1
2023/06/29 03:00:00, 0.0,24.2
2023/06/29 03:10:00, 0.0,24.1
2023/06/29 03:20:00, 0.0,24.1
2023/06/29 03:30:00, 0.0,24.0
2023/06/29 03:40:00, 0.0,24.0
2023/06/29 03:50:00, 0.0,24.0
2023/06/29 04:00:00, 0.0,24.1
2023/06/29 04:10:00, 0.0,24.0
2023/06/29 04:20:00, 0.0,24.2
2023/06/29 04:30:00, 0.0,24.1
2023/06/29 04:40:00, 0.0,24.1
2023/06/29 04:50:00, 0.0,24.0
2023/06/29 05:00:00, 0.0,24.0
2023/06/29 05:10:00, 0.0,24.5
2023/06/29 05:20:00, 0.0,24.3
2023/06/29 05:30:00, 0.0,24.7
2023/06/29 05:40:00, 0.0,25.2
2023/06/29 05:50:00, 0.0,25.8
2023/06/29 06:00:00, 0.0,25.9
2023/06/29 06:10:00, 0.0,25.8
2023/06/29 06:20:00, 0.0,26.3
2023/06/29 06:30:00, 0.0,26.6
2023/06/29 06:40:00, 0.0,27.2
2023/06/29 06:50:00, 0.0,26.9
2023/06/29 07:00:00, 0.0,27.0
2023/06/29 07:10:00, 0.0,27.5
2023/06/29 07:20:00, 0.0,27.9
2023/06/29 07:30:00, 0.0,28.3
2023/06/29 07:40:00, 0.0,28.0
2023/06/29 07:50:00, 0.0,28.3
2023/06/29 08:00:00, 0.0,28.2
2023/06/29 08:10:00, 0.0,30.1
2023/06/29 08:20:00, 0.0,29.8
2023/06/29 08:30:00, 0.0,29.4
2023/06/29 08:40:00, 0.0,30.3
2023/06/29 08:50:00, 0.0,31.2
2023/06/29 09:00:00, 0.0,31.0
2023/06/29 09:10:00, 0.0,30.8
2023/06/29 09:20:00, 0.0,30.4
2023/06/29 09:30:00, 0.0,31.4
2023/06/29 09:40:00, 0.0,31.2
2023/06/29 09:50:00, 0.0,31.4
2023/06/29 10:00:00, 0.0,32.5
2023/06/29 10:10:00, 0.0,31.7
2023/06/29 10:20:00, 0.0,32.4
2023/06/29 10:30:00, 0.1,33.1
2023/06/29 10:40:00, 0.1,33.5
2023/06/29 10:50:00, 0.1,33.4
2023/06/29 11:00:00, 0.0,32.3
2023/06/29 11:10:00, 0.0,33.2
2023/06/29 11:20:00, 0.2,34.2
2023/06/29 11:30:00, 0.0,33.7
2023/06/29 11:40:00, 0.0,34.1
2023/06/29 11:50:00, 0.1,34.1
2023/06/29 12:00:00, 0.1,35.3
2023/06/29 12:10:00, 0.1,34.5
2023/06/29 12:20:00, 0.3,35.0
2023/06/29 12:30:00, 0.2,34.5
2023/06/29 12:40:00, 0.1,33.9
2023/06/29 12:50:00, 0.0,33.4
2023/06/29 13:00:00, 0.0,33.3
2023/06/29 13:10:00, 0.0,32.9
2023/06/29 13:20:00, 0.0,32.1
2023/06/29 13:30:00, 0.0,31.4
2023/06/29 13:40:00, 0.1,32.4
2023/06/29 13:50:00, 0.2,33.3
2023/06/29 14:00:00, 0.0,32.5
2023/06/29 14:10:00, 0.0,32.2
2023/06/29 14:20:00, 0.0,28.5
2023/06/29 14:30:00, 0.0,28.2
2023/06/29 14:40:00, 0.0,28.6
2023/06/29 14:50:00, 0.0,29.4
2023/06/29 15:00:00, 0.1,30.2
2023/06/29 15:10:00, 0.0,30.2
2023/06/29 15:20:00, 0.0,30.4
2023/06/29 15:30:00, 0.0,29.7
2023/06/29 15:40:00, 0.0,29.8
2023/06/29 15:50:00, 0.0,29.8
2023/06/29 16:00:00, 0.0,28.0
2023/06/29 16:10:00, 0.0,27.0
2023/06/29 16:20:00, 0.0,27.2
2023/06/29 16:30:00, 0.0,27.2
2023/06/29 16:40:00, 0.0,27.3
2023/06/29 16:50:00, 0.0,27.7
2023/06/29 17:00:00, 0.0,27.8
2023/06/29 17:10:00, 0.0,27.6
2023/06/29 17:20:00, 0.0,27.6
2023/06/29 17:30:00, 0.0,28.0
2023/06/29 17:40:00, 0.0,27.7
2023/06/29 17:50:00, 0.0,27.6
2023/06/29 18:00:00, 0.0,27.6
2023/06/29 18:10:00, 0.0,27.6
2023/06/29 18:20:00, 0.0,27.5
2023/06/29 18:30:00, 0.0,27.2
2023/06/29 18:40:00, 0.0,27.4
2023/06/29 18:50:00, 0.0,27.3
2023/06/29 19:00:00, 0.0,27.3
2023/06/29 19:10:00, 0.0,27.1
2023/06/29 19:20:00, 0.0,27.1
2023/06/29 19:30:00, 0.0,27.1
2023/06/29 19:40:00, 0.0,27.3
2023/06/29 19:50:00, 0.0,27.2
2023/06/29 20:00:00, 0.0,27.1
2023/06/29 20:10:00, 0.0,26.9
2023/06/29 20:20:00, 0.0,27.0
2023/06/29 20:30:00, 0.0,27.0
2023/06/29 20:40:00, 0.0,27.1
2023/06/29 20:50:00, 0.0,26.9
2023/06/29 21:00:00, 0.0,26.6
2023/06/29 21:10:00, 0.0,26.9
2023/06/29 21:20:00, 0.0,26.8
2023/06/29 21:30:00, 0.0,26.8
2023/06/29 21:40:00, 0.0,26.9
2023/06/29 21:50:00, 0.0,26.8
2023/06/29 22:00:00, 0.0,26.8
2023/06/29 22:10:00, 0.0,27.0
2023/06/29 22:20:00, 0.0,27.2
2023/06/29 22:30:00, 0.0,27.0
2023/06/29 22:40:00, 0.0,27.0
2023/06/29 22:50:00, 0.0,27.1
2023/06/29 23:00:00, 0.0,27.0
2023/06/29 23:10:00, 0.0,27.0
2023/06/29 23:20:00, 0.0,27.0
2023/06/29 23:30:00, 0.0,27.4
2023/06/29 23:40:00, 0.0,27.6
2023/06/29 23:50:00, 0.0,27.3
